Content
SEND FEEDBACK

Daily
Averages
Monthly
Summary
Mexico

ISLA MUJERES, QUINTANA ROO


Home > North America > Mexico > Quintana Roo
Elevation: 16 feet     Latitude: 21 14N     Longitude: 086 44W

WEATHER
 
SELECT A DAY
Number of Records: 167,199;   Date Range: 1/1/95 - 11/25/14
 
SHARE

PRINT THIS DATA

[ ← Previous Day ]
WEATHER ALMANAC - JUNE 18, 2014
[ Next Day → ]
[ °C ]   °F
Weather ElementAverageHighLow
Temperature82.2 °F87.8 °F (1:41 pm)77 °F (2:43 am)
Dewpoint75.6 °F77 °F (7:42 am)75.2 °F (1:44 am)
Humidity81 %94 % (2:43 am)66 % (1:41 pm)
Barometer30.00 in30.04 in (10:44 am)29.97 in (3:42 pm)
Wind Speed6.6 mph12.7 mph (3:42 pm)
Weather ElementAverage
Visibility7 mi
Wind DirectionENE (81.7 °)

Weather ElementTotal
Precipitation---
Cooling Degree Days17.4 (Base 65)
Growing Degree Days32.4 (Base 50)
Averaged from 23 records on June 18, 2014
WEATHER CONDITIONS BREAKOUT
WIND DIRECTION BREAKOUT
WEATHER BY HOUR - JUNE 18, 2014
[ °C ]   °F
Local TimeTemperatureDewpointHumidityBarometerVisibilityWind DirectionWind SpeedGust SpeedPrecipitationEventsConditions
1:44 AM78.8 °F75.2 °F89 %29.99 in7.0 miENE (70°)5.8 mphClear
2:43 AM77.0 °F75.2 °F94 %29.98 in7.0 miCalmPartly Cloudy
3:48 AM77.0 °F75.2 °F94 %29.99 in7.0 miCalmScattered Clouds
4:47 AM77.0 °F75.2 °F94 %29.98 in7.0 miEast (80°)5.8 mphScattered Clouds
5:46 AM77.0 °F75.2 °F94 %29.99 in7.0 miNE (40°)5.8 mphScattered Clouds
6:45 AM78.8 °F75.2 °F89 %30.02 in7.0 miENE (70°)5.8 mphScattered Clouds
7:42 AM82.4 °F77.0 °F84 %30.01 in7.0 miWest (270°)4.6 mphPartly Cloudy
8:42 AM84.2 °F77.0 °F79 %30.02 in7.0 miEast (80°)6.9 mphScattered Clouds
9:47 AM84.2 °F75.2 °F74 %30.00 in7.0 miENE (70°)9.2 mphMostly Cloudy
10:44 AM84.2 °F75.2 °F74 %30.04 in7.0 miEast (80°)6.9 mphMostly Cloudy
11:40 AM86.0 °F75.2 °F70 %30.03 in7.0 miENE (60°)11.5 mphMostly Cloudy
12:44 PM86.0 °F75.2 °F70 %30.00 in7.0 miENE (60°)10.4 mphMostly Cloudy
1:41 PM87.8 °F75.2 °F66 %30.01 in7.0 miEast (100°)8.1 mphMostly Cloudy
2:40 PM86.0 °F75.2 °F70 %30.01 in7.0 miEast (80°)9.2 mphMostly Cloudy
3:42 PM87.8 °F75.2 °F66 %29.97 in7.0 miESE (110°)12.7 mphMostly Cloudy
4:41 PM84.2 °F75.2 °F74 %30.00 in7.0 miEast (90°)6.9 mphMostly Cloudy
5:42 PM84.2 °F75.2 °F74 %29.99 in7.0 miENE (70°)6.9 mphMostly Cloudy
6:40 PM82.4 °F75.2 °F79 %29.98 in7.0 miEast (80°)6.9 mphScattered Clouds
7:40 PM82.4 °F77.0 °F84 %30.01 in7.0 miEast (100°)3.5 mphPartly Cloudy
8:40 PM80.6 °F75.2 °F84 %30.01 in7.0 miEast (80°)5.8 mphClear
9:42 PM80.6 °F77.0 °F89 %29.99 in7.0 miEast (80°)4.6 mphClear
10:43 PM80.6 °F77.0 °F89 %30.04 in7.0 miEast (100°)6.9 mphScattered Clouds
11:45 PM80.6 °F75.2 °F84 %30.04 in7.0 miESE (110°)8.1 mphPartly Cloudy
Hourly data recorded from MMUN, located miles away from Isla Mujeres, Quintana Roo







STORIES FROM OUR PARTNERS